ONEWEB-0064, 45433

Orbit data source: Space-Track

ONEWEB-0064, 45433 is a payload satellite owned by One Web (UK) in LEO that was launched on Sat, 21 Mar 2020 UTC via a SOYUZ-2-1B launch vehicle from the Tyuratam Missile And Space Complex (TTMTR). Payload-class satellites include a variety of spacecraft equipped with specific instruments for various scientific and technological missions. These include communications satellites like Starlink; space stations such as the ISS; scientific satellites like the Hubble; Earth observation satellites from companies like Planet Labs, Umbra, and HawkEye 360; GPS; miniature CubeSats for education and research; and military/defense satellites.

Loading next visibility...
Identifier
45433, 2020-020K
Orbit
LEO
Country
Flag of UKUK
Related business
Manufacturer
One Web
Mission
Operational Commercial Communications
Bus & Motor
ARROW, Unknown motor
Mass
148 kg wet, ~140 kg dry
Launch date (UTC)
2020-03-21 (6 years ago)
Launch vehicle
SOYUZ-2-1B
Launch site
Tyuratam Missile And Space Complex (TTMTR)
Object type
Payload
Rocket body
Debris
Shape & HBR
Trap Box + 2 Pan, 6.7 m
Radar Cross Section
3.464 m², Large (>1 m²)

Expand to show TLE details & history
Last TLE update: 10 hours ago

TLE from 10 hours ago
0 ONEWEB-0064
1 45433U 20020K   25318.56285828 -.00000632  00000-0 -18185-2 0  9994
2 45433  87.8861  63.8125 0001706  97.2293 262.9029 13.11418271274552
Epoch: 2025-11-14T13:30Z
TLE epoch observation values (Epoch: 2025-11-14T13:30:30.955Z)
Latitude
-0.00001°
Longitude
167.27896°
Altitude
1,220.727 km
Speed
7.244 km/s
True Right ascension
04h 15m 14s
True Declination
0° 00' 00"
Sunlit
Object was in full shadow at epoch
Visualization orbit readout
Latitude
Unknown
Longitude
Unknown
Altitude
Unknown
Speed
Unknown
Apparent Right ascension
Unknown
Apparent Declination
Unknown
Sunlit
N/A
Visualization observer readout
Local Sidereal Time
20:17:00
Azimuth
Unknown
Elevation
Unknown
Doppler factor
Unknown
Orbital elements
Apogee altitude
1,216.091 km
Perigee altitude
1,213.5 km
Semi-major axis
7,592.933 km
Eccentricity
0.00017
Inclination
87.8861°
RAAN
63.8125°
Arg. of periapsis
97.2293°
True anomaly
262.8835°
Mean anomaly
262.9029°
Eccentric anomaly
262.8932°
Mean motion
3.28042 °/min
Orbital period
109.74 mins
BSTAR
-0.0018185
Loading maneuver chart data...
Computing Atmospheric mass density...
Loading historical data...
Loading historical data...
Loading historical data...
Loading historical data...
Loading historical data...
Loading historical data...
Loading historical data...

Documentation

Showing up to 5 results
|